EUTELSAT 7C

Last updated on Sun Apr 27 2025 00:02:42 GMT+0000 (Coordinated Universal Time)

1 44334U 19034B 25115.84975264 .00000051 00000+0 00000+0 0 9998 2 44334 0.0688 190.0381 0003123 189.6822 147.3035 1.00270236 2656
UTC large
Height (km)
Speed (km/s)
/
Latitude / Longitude
Inclination (degrees)
Orbital Period (minutes)
Azimuth
Elevation
Range (km)
Doppler Factor

Next 0 passes for location: London (51.5072 / 0.1276)

Sorry there are no passes over London.